P/2019 M1 ( Christensen )

Japanese version
Home page
Updated on July 5, 2019

---------------------------------------------------------------------

* Profile

Recovery Date June 25, 2019
Magnitude 19.9 mag
Recoverer K. Sarneczky (Konkoly Observatory)

* Orbital Elements

Epoch 2019 Nov. 13.0 TT = JDT 2458800.5                                         
T 2019 Oct. 26.20660 TT                                 MPCLINUX                
q   1.4192131            (2000.0)            P               Q                  
n   0.14779698     Peri.  133.61704     +0.94060360     +0.32448959             
a   3.5429010      Node   207.89814     -0.33882522     +0.91582149             
e   0.5994206      Incl.   12.32251     +0.02150223     +0.23659565             
P   6.67                                                                        
From 323 observations 2006 Aug. 23-2019 June 29, mean residual 0".7.            

* Magnitudes Graph

        m1 = 17.0 + 5 log d + 10.0 log r

---------------------------------------------------------------------

The orbital elements are published on M.P.E.C. 2019-N62.
The magnitudes graphs are made with Comet for Windows.

---------------------------------------------------------------------

Copyright(C) Seiichi Yoshida (comet@aerith.net). All rights reserved.